Home > Weather > Bnei Brak > Past weeks

Flag for Israel Past Weather in Bnei Brak, Israel — Yesterday and Last 2 Weeks

Now
81 °F

Passing clouds.


Feels Like: 85 °F
Forecast: 77 / 87 °F
Wind: 9 mph from Southwest

Location: Dov Airport

Current Time: Jun 29, 2016 at 6:47:34 AM

Latest Report: Jun 29, 2016 at 5:50 AM


Visibility: N/A

Pressure: 29.74 "Hg

Humidity: 79%

Dew Point: 73 °F

Location of Bnei BrakLocation

Past Weather in Bnei Brak — Graph

°F

Bnei Brak Temperature Yesterday

Maximum temperature yesterday: 86 °F (at 1:50 PM)
Minimum temperature yesterday: 77 °F (at 5:50 AM)
Average temperature yesterday: 82 °F

High & Low Weather Summary for the Past Weeks

 TemperatureHumidityPressure
High88 °F (Jun 15, 11:50 AM)94% (Jun 20, 5:50 AM)29.89 "Hg (Jun 20, 5:50 AM)
Low72 °F (Jun 17, 5:50 AM)31% (Jun 15, 7:50 AM)29.68 "Hg (Jun 24, 4:50 PM)
Average81 °F75%29.77 "Hg
* Reported Jun 13 10:50 PM — Jun 28 10:50 PM, Bnei Brak, Weather by CustomWeather, © 2016

Note: Actual official high and low records may vary slightly from our data, if they occured in-between our weather recording intervals... More about our weather records

Advertising

Bnei Brak Weather History for the Previous 24 Hours

Scroll right to see more
 ConditionsComfort  
Time TempWeatherWind HumidityBarometerVisibility
10:50 PM
Tue, Jun 28
81 °FPassing clouds.12 mph79%29.74 "HgN/A
9:50 PM81 °FPassing clouds.12 mph79%29.74 "HgN/A
8:50 PM81 °FPartly sunny.9 mph74%29.74 "HgN/A
7:50 PM81 °FScattered clouds.9 mph74%29.71 "HgN/A
6:50 PM82 °FPassing clouds.10 mph70%29.71 "HgN/A
5:50 PM82 °FPassing clouds.13 mph70%29.71 "HgN/A
4:50 PM82 °FPassing clouds.13 mph70%29.71 "HgN/A
3:50 PM84 °FPassing clouds.12 mph62%29.71 "HgN/A
2:50 PM86 °FPassing clouds.13 mph59%29.71 "HgN/A
1:50 PM86 °FScattered clouds.13 mph59%29.74 "HgN/A
12:50 PM84 °FPassing clouds.13 mph62%29.74 "HgN/A
11:50 AM84 °FPassing clouds.10 mph62%29.74 "HgN/A
10:50 AM84 °FScattered clouds.10 mph62%29.74 "HgN/A
9:50 AM82 °FPassing clouds.12 mph66%29.74 "HgN/A
8:50 AM81 °FScattered clouds.10 mph70%29.74 "HgN/A
7:50 AM81 °FScattered clouds.9 mph70%29.74 "HgN/A
6:50 AM79 °FPartly sunny.9 mph74%29.74 "HgN/A
Weather by CustomWeather, © 2016

See weather overviewHow to use our weather pages